Time,TemperatureF,DewpointF,PressureIn,WindDirection,WindDirectionDegrees,WindSpeedMPH,WindSpeedGustMPH,Humidity,HourlyPrecipIn,Conditions,Clouds,dailyrainin,SolarRadiationWatts/m^2,SoftwareType,DateUTC
2013-10-04 00:07:00,78.0,70.0,-100.00,SE,146,9.0,15.0,77,0.00,,,0.00,0.000000,,2013-10-04 05:07:00,
2013-10-04 00:50:00,78.0,70.0,-100.00,SE,146,9.0,15.0,77,0.00,,,0.00,0.000000,,2013-10-04 05:50:00,
2013-10-04 00:59:00,78.0,70.0,-100.00,SE,146,9.0,15.0,77,0.00,,,0.00,0.000000,,2013-10-04 05:59:00,
2013-10-04 01:49:00,77.0,70.0,-100.00,SSE,153,11.0,17.0,78,0.00,,,0.00,0.000000,,2013-10-04 06:49:00,
2013-10-04 01:58:00,77.0,70.0,-100.00,SSE,153,11.0,17.0,78,0.00,,,0.00,0.000000,,2013-10-04 06:58:00,
2013-10-04 02:06:00,77.0,70.0,-100.00,SSE,153,11.0,17.0,78,0.00,,,0.00,0.000000,,2013-10-04 07:06:00,
2013-10-04 02:48:00,76.0,69.0,-100.00,SSE,157,10.0,20.0,80,0.00,,,0.00,0.000000,,2013-10-04 07:48:00,
2013-10-04 02:58:00,76.0,69.0,-100.00,SSE,157,10.0,20.0,80,0.00,,,0.00,0.000000,,2013-10-04 07:58:00,
2013-10-04 03:06:00,76.0,69.0,-100.00,SSE,157,10.0,20.0,80,0.00,,,0.00,0.000000,,2013-10-04 08:06:00,
2013-10-04 03:48:00,75.0,69.0,-100.00,SSE,155,10.0,18.0,83,0.00,,,0.00,0.000000,,2013-10-04 08:48:00,
2013-10-04 03:58:00,75.0,69.0,-100.00,SSE,155,10.0,18.0,83,0.00,,,0.00,0.000000,,2013-10-04 08:58:00,
2013-10-04 04:06:00,75.0,69.0,-100.00,SSE,155,10.0,18.0,83,0.00,,,0.00,0.000000,,2013-10-04 09:06:00,
2013-10-04 04:07:00,74.0,69.0,-100.00,SSE,159,9.0,16.0,84,0.00,,,0.00,0.000000,,2013-10-04 09:07:00,
2013-10-04 04:51:00,74.0,69.0,-100.00,SSE,159,9.0,16.0,84,0.00,,,0.00,0.000000,,2013-10-04 09:51:00,
2013-10-04 05:00:00,74.0,69.0,-100.00,SSE,159,9.0,16.0,84,0.00,,,0.00,0.000000,,2013-10-04 10:00:00,
2013-10-04 05:07:00,74.0,70.0,-100.00,SSE,163,8.0,15.0,86,0.00,,,0.00,0.000000,,2013-10-04 10:07:00,
2013-10-04 05:51:00,74.0,70.0,-100.00,SSE,163,8.0,15.0,86,0.00,,,0.00,0.000000,,2013-10-04 10:51:00,
2013-10-04 06:00:00,74.0,70.0,-100.00,SSE,163,8.0,15.0,86,0.00,,,0.00,0.000000,,2013-10-04 11:00:00,
2013-10-04 06:07:00,73.0,69.0,-100.00,SSE,159,10.0,15.0,87,0.00,,,0.00,0.000000,,2013-10-04 11:07:00,
2013-10-04 06:51:00,73.0,69.0,-100.00,SSE,159,10.0,15.0,87,0.00,,,0.00,0.000000,,2013-10-04 11:51:00,
2013-10-04 07:00:00,73.0,69.0,-100.00,SSE,159,10.0,15.0,87,0.00,,,0.00,0.000000,,2013-10-04 12:00:00,
2013-10-04 07:07:00,73.0,69.0,-100.00,SSE,155,8.0,16.0,87,0.00,,,0.00,0.000000,,2013-10-04 12:07:00,
2013-10-04 07:50:00,73.0,69.0,-100.00,SSE,155,8.0,16.0,87,0.00,,,0.00,0.000000,,2013-10-04 12:50:00,
2013-10-04 08:00:00,73.0,69.0,-100.00,SSE,155,8.0,16.0,87,0.00,,,0.00,0.000000,,2013-10-04 13:00:00,
2013-10-04 08:07:00,73.0,69.0,-100.00,SSE,155,9.0,13.0,88,0.00,,,0.00,13.000000,,2013-10-04 13:07:00,
2013-10-04 08:50:00,73.0,69.0,-100.00,SSE,155,9.0,13.0,88,0.00,,,0.00,13.000000,,2013-10-04 13:50:00,
2013-10-04 08:59:00,73.0,69.0,-100.00,SSE,155,9.0,13.0,88,0.00,,,0.00,13.000000,,2013-10-04 13:59:00,
2013-10-04 09:07:00,76.0,70.0,-100.00,SSE,162,10.0,16.0,83,0.00,,,0.00,43.000000,,2013-10-04 14:07:00,
2013-10-04 09:51:00,76.0,70.0,-100.00,SSE,162,10.0,16.0,83,0.00,,,0.00,43.000000,,2013-10-04 14:51:00,
2013-10-04 10:00:00,76.0,70.0,-100.00,SSE,162,10.0,16.0,83,0.00,,,0.00,43.000000,,2013-10-04 15:00:00,
2013-10-04 10:07:00,78.0,69.0,-100.00,South,175,8.0,16.0,75,0.00,,,0.00,134.000000,,2013-10-04 15:07:00,
2013-10-04 10:51:00,78.0,69.0,-100.00,South,175,8.0,16.0,75,0.00,,,0.00,134.000000,,2013-10-04 15:51:00,
2013-10-04 11:00:00,78.0,69.0,-100.00,South,175,8.0,16.0,75,0.00,,,0.00,134.000000,,2013-10-04 16:00:00,
2013-10-04 11:07:00,82.0,69.0,-100.00,South,174,9.0,15.0,65,0.00,,,0.00,410.000000,,2013-10-04 16:07:00,
2013-10-04 11:51:00,82.0,69.0,-100.00,South,174,9.0,15.0,65,0.00,,,0.00,410.000000,,2013-10-04 16:51:00,
2013-10-04 12:00:00,82.0,69.0,-100.00,South,174,9.0,15.0,65,0.00,,,0.00,410.000000,,2013-10-04 17:00:00,
2013-10-04 12:07:00,85.0,69.0,-100.00,SSE,166,10.0,18.0,58,0.00,,,0.00,804.000000,,2013-10-04 17:07:00,
2013-10-04 13:02:00,85.0,69.0,-100.00,SSE,166,10.0,18.0,58,0.00,,,0.00,804.000000,,2013-10-04 18:02:00,
2013-10-04 13:53:00,87.0,68.0,-100.00,SSE,168,10.0,16.0,54,0.00,,,0.00,796.000000,,2013-10-04 18:53:00,
2013-10-04 14:02:00,87.0,68.0,-100.00,SSE,168,10.0,16.0,54,0.00,,,0.00,796.000000,,2013-10-04 19:02:00,
2013-10-04 14:43:00,88.0,68.0,-100.00,South,170,9.0,21.0,52,0.00,,,0.00,725.000000,,2013-10-04 19:43:00,
2013-10-04 14:52:00,88.0,68.0,-100.00,South,170,9.0,21.0,52,0.00,,,0.00,725.000000,,2013-10-04 19:52:00,
2013-10-04 15:02:00,88.0,68.0,-100.00,South,170,9.0,21.0,52,0.00,,,0.00,725.000000,,2013-10-04 20:02:00,
2013-10-04 15:43:00,88.0,66.0,-100.00,South,175,10.0,18.0,49,0.00,,,0.00,548.000000,,2013-10-04 20:43:00,
2013-10-04 15:53:00,88.0,66.0,-100.00,South,175,10.0,18.0,49,0.00,,,0.00,548.000000,,2013-10-04 20:53:00,
2013-10-04 16:01:00,88.0,66.0,-100.00,South,175,10.0,18.0,49,0.00,,,0.00,548.000000,,2013-10-04 21:01:00,
2013-10-04 16:43:00,90.0,68.0,-100.00,SSE,156,11.0,17.0,48,0.00,,,0.00,548.000000,,2013-10-04 21:43:00,
2013-10-04 16:54:00,90.0,68.0,-100.00,SSE,156,11.0,17.0,48,0.00,,,0.00,548.000000,,2013-10-04 21:54:00,
2013-10-04 17:03:00,90.0,68.0,-100.00,SSE,156,11.0,17.0,48,0.00,,,0.00,548.000000,,2013-10-04 22:03:00,
2013-10-04 17:43:00,87.0,64.0,-100.00,SSE,158,10.0,20.0,47,0.00,,,0.00,443.000000,,2013-10-04 22:43:00,
2013-10-04 17:52:00,87.0,64.0,-100.00,SSE,158,10.0,20.0,47,0.00,,,0.00,443.000000,,2013-10-04 22:52:00,
2013-10-04 18:03:00,87.0,64.0,-100.00,SSE,158,10.0,20.0,47,0.00,,,0.00,443.000000,,2013-10-04 23:03:00,
2013-10-04 18:42:00,87.0,65.0,-100.00,SSE,150,8.0,20.0,49,0.00,,,0.00,231.000000,,2013-10-04 23:42:00,
2013-10-04 18:53:00,87.0,65.0,-100.00,SSE,150,8.0,20.0,49,0.00,,,0.00,231.000000,,2013-10-04 23:53:00,
2013-10-04 19:02:00,87.0,65.0,-100.00,SSE,150,8.0,20.0,49,0.00,,,0.00,231.000000,,2013-10-05 00:02:00,
2013-10-04 19:42:00,84.0,66.0,-100.00,SSE,151,8.0,17.0,54,0.00,,,0.00,81.000000,,2013-10-05 00:42:00,
2013-10-04 19:53:00,84.0,66.0,-100.00,SSE,151,8.0,17.0,54,0.00,,,0.00,81.000000,,2013-10-05 00:53:00,
2013-10-04 20:02:00,84.0,66.0,-100.00,SSE,151,8.0,17.0,54,0.00,,,0.00,81.000000,,2013-10-05 01:02:00,
2013-10-04 20:43:00,82.0,65.0,-100.00,SE,145,7.0,12.0,57,0.00,,,0.00,1.000000,,2013-10-05 01:43:00,
2013-10-04 20:52:00,82.0,65.0,-100.00,SE,145,7.0,12.0,57,0.00,,,0.00,1.000000,,2013-10-05 01:52:00,
2013-10-04 21:02:00,82.0,65.0,-100.00,SE,145,7.0,12.0,57,0.00,,,0.00,1.000000,,2013-10-05 02:02:00,
2013-10-04 21:42:00,81.0,66.0,-100.00,SSE,147,10.0,17.0,60,0.00,,,0.00,0.000000,,2013-10-05 02:42:00,
2013-10-04 21:52:00,81.0,66.0,-100.00,SSE,147,10.0,17.0,60,0.00,,,0.00,0.000000,,2013-10-05 02:52:00,
2013-10-04 22:02:00,81.0,66.0,-100.00,SSE,147,10.0,17.0,60,0.00,,,0.00,0.000000,,2013-10-05 03:02:00,
2013-10-04 22:45:00,80.0,65.0,-100.00,SSE,149,9.0,16.0,60,0.00,,,0.00,0.000000,,2013-10-05 03:45:00,
2013-10-04 22:55:00,80.0,65.0,-100.00,SSE,149,9.0,16.0,60,0.00,,,0.00,0.000000,,2013-10-05 03:55:00,
2013-10-04 23:04:00,80.0,65.0,-100.00,SSE,149,9.0,16.0,60,0.00,,,0.00,0.000000,,2013-10-05 04:04:00,
2013-10-04 23:44:00,80.0,66.0,-100.00,SSE,152,11.0,18.0,62,0.00,,,0.00,0.000000,,2013-10-05 04:44:00,
2013-10-04 23:53:00,80.0,66.0,-100.00,SSE,152,11.0,18.0,62,0.00,,,0.00,0.000000,,2013-10-05 04:53:00,